Starlink 30834

operational
NORAD ID: 58151 Int'l Des: 2023-166 Owner: SPXS Country: US Constellation: starlink
LEOCIRCULAR

Über Starlink 30834

Beschreibung wird geladen...

Live-Position

3D-Globus wird geladen...

Nächste Überflüge

Höhenverlauf

Altitude vs Time

uPlot chart will show altitude changes over time

Zweizeiliger Elementsatz

1 58151U 23166B 25308.08564100 .00028394 00000-0 96693-3 0 9992
2 58151 53.1572 83.1739 0001128 69.9542 290.1580 15.30207187113940
Epoch: 4. Nov. 2025 • Age: 8 hours

Aktueller Status

Höhe 490.0 km
Geschwindigkeit 7.62 km/s
Subsatellitenpunkt -42.89°S, 150.6°W
Startdatum 29. Okt. 2023
Alter 2 years
Typ internet

Technische Details

Klassifizierung Payload
Masse 730.00 kg
Trockenmasse 700.00 kg
Gesamtmasse 730.00 kg
Länge 0.30 m
Durchmesser 4.10 m
Spannweite 29.00 m
Form Box + pan
Hersteller SPXS
Bus-Typ Starlink V2M
Phasenstatus In Orbit
Besitzer/Staat SPXS/US

Große Konstellationen

Loading constellations...